DLH2RW EDDF-LKPR

Flight info

Callsign DLH2RW
Flight time 0h 44m
Altitude 29000
Route SULUS4D/07C SULUS Z650 TONSU Z35 ODOMO DCT LOMKI
Aircraft A321/M-SDE2E3FGILORWXYZ/H

Departure

Time 2026-04-14 14:30
Airport Frankfurt Main Airport (EDDF)

Arrival

Time 2026-04-14 15:15
Airport Václav Havel Airport Prague (LKPR)
Time Latitude Longitude Altitude Speed Heading
2026-04-14 14:13 50.04753 8.56881 364 ft 0 kts 294°
2026-04-14 14:18 50.04748 8.56898 363 ft 4 kts 293°
2026-04-14 14:18 50.04737 8.56937 363 ft 4 kts 295°
2026-04-14 14:18 50.04730 8.56972 363 ft 4 kts 252°
2026-04-14 14:19 50.04745 8.57000 365 ft 3 kts 205°
2026-04-14 14:19 50.04765 8.57014 361 ft 4 kts 204°
2026-04-14 14:19 50.04789 8.57031 360 ft 4 kts 205°
2026-04-14 14:19 50.04799 8.57038 358 ft 0 kts 205°
2026-04-14 14:23 50.04789 8.57031 356 ft 5 kts 205°
2026-04-14 14:23 50.04753 8.57005 358 ft 6 kts 205°
2026-04-14 14:23 50.04708 8.56972 358 ft 8 kts 205°
2026-04-14 14:24 50.04653 8.56933 363 ft 9 kts 204°
2026-04-14 14:24 50.04585 8.56903 358 ft 10 kts 194°
2026-04-14 14:24 50.04524 8.56880 359 ft 9 kts 193°
2026-04-14 14:24 50.04459 8.56858 359 ft 10 kts 190°
2026-04-14 14:25 50.04385 8.56839 360 ft 11 kts 190°
2026-04-14 14:25 50.04306 8.56814 362 ft 12 kts 192°
2026-04-14 14:25 50.04250 8.56777 364 ft 10 kts 228°
2026-04-14 14:25 50.04220 8.56664 361 ft 13 kts 249°
2026-04-14 14:26 50.04184 8.56516 360 ft 16 kts 250°
2026-04-14 14:26 50.04142 8.56340 358 ft 18 kts 250°
2026-04-14 14:26 50.04095 8.56143 360 ft 20 kts 249°
2026-04-14 14:26 50.04044 8.55929 351 ft 22 kts 249°
2026-04-14 14:27 50.03988 8.55698 356 ft 24 kts 250°
2026-04-14 14:27 50.03930 8.55455 355 ft 24 kts 250°
2026-04-14 14:27 50.03870 8.55201 352 ft 26 kts 250°
2026-04-14 14:27 50.03806 8.54935 356 ft 27 kts 249°
2026-04-14 14:28 50.03739 8.54654 349 ft 29 kts 250°
2026-04-14 14:28 50.03677 8.54393 351 ft 9 kts 250°
2026-04-14 14:28 50.03636 8.54310 353 ft 10 kts 201°
2026-04-14 14:28 50.03567 8.54334 349 ft 11 kts 160°
2026-04-14 14:29 50.03501 8.54373 346 ft 9 kts 159°
2026-04-14 14:29 50.03491 8.54421 344 ft 3 kts 72°
2026-04-14 14:29 50.03495 8.54438 347 ft 1 kts 70°
2026-04-14 14:29 50.03496 8.54440 347 ft 0 kts 70°
2026-04-14 14:30 50.03540 8.54624 349 ft 53 kts 69°
2026-04-14 14:30 50.03758 8.55536 353 ft 123 kts 69°
2026-04-14 14:30 50.04113 8.57022 604 ft 154 kts 68°
2026-04-14 14:30 50.04481 8.58575 1402 ft 152 kts 68°
2026-04-14 14:31 50.04851 8.60170 2019 ft 166 kts 68°
2026-04-14 14:31 50.05257 8.61978 2398 ft 188 kts 69°
2026-04-14 14:31 50.05710 8.64006 2725 ft 209 kts 69°
2026-04-14 14:31 50.06210 8.66239 3149 ft 223 kts 69°
2026-04-14 14:32 50.06721 8.68540 3921 ft 226 kts 69°
2026-04-14 14:32 50.07145 8.70903 4733 ft 230 kts 82°
2026-04-14 14:32 50.07051 8.73472 5246 ft 251 kts 97°
2026-04-14 14:32 50.06730 8.76239 5763 ft 265 kts 98°
2026-04-14 14:33 50.06390 8.79085 6539 ft 269 kts 98°
2026-04-14 14:33 50.06051 8.81929 7295 ft 273 kts 98°
2026-04-14 14:33 50.05779 8.84860 8029 ft 276 kts 90°
2026-04-14 14:33 50.05815 8.87871 8728 ft 281 kts 87°
2026-04-14 14:34 50.05928 8.94070 10096 ft 292 kts 89°
2026-04-14 14:34 50.05985 8.97304 10468 ft 308 kts 89°
2026-04-14 14:34 50.06025 8.99573 10563 ft 324 kts 89°
2026-04-14 14:35 50.06105 9.04413 11016 ft 341 kts 89°
2026-04-14 14:35 50.06144 9.06884 11400 ft 345 kts 89°
2026-04-14 14:35 50.06199 9.10645 12015 ft 349 kts 89°
2026-04-14 14:35 50.06256 9.14449 12647 ft 353 kts 89°
2026-04-14 14:36 50.06312 9.18292 13267 ft 357 kts 89°
2026-04-14 14:36 50.06366 9.22182 13895 ft 362 kts 89°
2026-04-14 14:36 50.06419 9.26114 14477 ft 365 kts 89°
2026-04-14 14:36 50.06472 9.30040 15057 ft 368 kts 89°
2026-04-14 14:37 50.06526 9.34094 15638 ft 371 kts 89°
2026-04-14 14:37 50.06577 9.38079 16227 ft 374 kts 89°
2026-04-14 14:37 50.06629 9.42140 16798 ft 377 kts 89°
2026-04-14 14:37 50.06679 9.46241 17359 ft 380 kts 89°
2026-04-14 14:38 50.06729 9.50363 17940 ft 382 kts 89°
2026-04-14 14:38 50.06777 9.54536 18479 ft 386 kts 89°
2026-04-14 14:38 50.06823 9.58728 18950 ft 388 kts 89°
2026-04-14 14:38 50.06864 9.62944 19450 ft 391 kts 89°
2026-04-14 14:39 50.06910 9.67190 19909 ft 393 kts 89°
2026-04-14 14:39 50.06961 9.71462 20361 ft 396 kts 90°
2026-04-14 14:39 50.07007 9.75761 20797 ft 399 kts 90°
2026-04-14 14:39 50.07045 9.80045 21246 ft 402 kts 90°
2026-04-14 14:40 50.07081 9.84473 21696 ft 405 kts 90°
2026-04-14 14:40 50.07114 9.88813 22133 ft 408 kts 90°
2026-04-14 14:40 50.07144 9.93245 22586 ft 411 kts 91°
2026-04-14 14:40 50.07174 9.97724 23016 ft 414 kts 91°
2026-04-14 14:41 50.07204 10.02212 23439 ft 417 kts 91°
2026-04-14 14:41 50.07234 10.06744 23850 ft 420 kts 91°
2026-04-14 14:41 50.07264 10.11300 24221 ft 422 kts 90°
2026-04-14 14:41 50.07291 10.15877 24628 ft 423 kts 90°
2026-04-14 14:42 50.07316 10.20473 25013 ft 425 kts 90°
2026-04-14 14:42 50.07341 10.25094 25394 ft 428 kts 90°
2026-04-14 14:42 50.07366 10.29736 25772 ft 430 kts 90°
2026-04-14 14:42 50.07392 10.34397 26142 ft 432 kts 90°
2026-04-14 14:43 50.07417 10.39089 26512 ft 434 kts 90°
2026-04-14 14:43 50.07438 10.43794 26874 ft 436 kts 90°
2026-04-14 14:43 50.07456 10.48468 27228 ft 438 kts 90°
2026-04-14 14:43 50.07471 10.53213 27586 ft 440 kts 91°
2026-04-14 14:44 50.07485 10.57996 27942 ft 442 kts 90°
2026-04-14 14:44 50.07499 10.62797 28313 ft 444 kts 90°
2026-04-14 14:44 50.07513 10.67611 28662 ft 446 kts 91°
2026-04-14 14:44 50.07310 10.72434 28988 ft 447 kts 99°
2026-04-14 14:45 50.06642 10.77162 29174 ft 446 kts 108°
2026-04-14 14:45 50.05695 10.81667 29192 ft 430 kts 109°
2026-04-14 14:45 50.04763 10.86046 29189 ft 424 kts 109°
2026-04-14 14:46 50.02918 10.94723 29190 ft 422 kts 109°
2026-04-14 14:46 50.01080 11.03374 29187 ft 421 kts 109°
2026-04-14 14:47 49.99239 11.12010 29187 ft 421 kts 109°
2026-04-14 14:47 49.97427 11.20649 29184 ft 421 kts 105°
2026-04-14 14:48 49.96749 11.29678 29184 ft 422 kts 93°
2026-04-14 14:48 49.96481 11.38793 29179 ft 422 kts 93°
2026-04-14 14:49 49.96190 11.47901 29181 ft 422 kts 93°
2026-04-14 14:49 49.95884 11.57022 29177 ft 423 kts 94°
2026-04-14 14:50 49.95575 11.66091 29178 ft 423 kts 94°
2026-04-14 14:50 49.95257 11.75210 29176 ft 423 kts 94°
2026-04-14 14:51 49.94931 11.84332 29180 ft 423 kts 94°
2026-04-14 14:51 49.94604 11.93441 29169 ft 423 kts 94°
2026-04-14 14:52 49.94365 12.02582 29164 ft 424 kts 92°
2026-04-14 14:52 49.94210 12.11742 29161 ft 425 kts 92°
2026-04-14 14:53 49.94040 12.20825 28809 ft 412 kts 92°
2026-04-14 14:53 49.93944 12.25236 28533 ft 406 kts 92°
2026-04-14 14:53 49.93845 12.29606 28254 ft 403 kts 92°
2026-04-14 14:53 49.93746 12.33944 27986 ft 401 kts 93°
2026-04-14 14:54 49.93639 12.38265 27715 ft 400 kts 93°
2026-04-14 14:54 49.93518 12.42583 27452 ft 399 kts 94°
2026-04-14 14:54 49.93393 12.46873 27181 ft 397 kts 94°
2026-04-14 14:54 49.93269 12.51157 26922 ft 396 kts 94°
2026-04-14 14:55 49.93144 12.55417 26662 ft 394 kts 94°
2026-04-14 14:55 49.93019 12.59655 26403 ft 393 kts 94°
2026-04-14 14:55 49.92897 12.63886 26147 ft 391 kts 94°
2026-04-14 14:55 49.92775 12.68103 25900 ft 390 kts 94°
2026-04-14 14:56 49.92520 12.76482 25403 ft 387 kts 94°
2026-04-14 14:56 49.92387 12.80651 25158 ft 386 kts 94°
2026-04-14 14:56 49.92252 12.84796 24899 ft 385 kts 94°
2026-04-14 14:57 49.92115 12.88947 24649 ft 384 kts 94°
2026-04-14 14:57 49.91981 12.93035 24414 ft 383 kts 94°
2026-04-14 14:57 49.91849 12.97152 24174 ft 382 kts 94°
2026-04-14 14:57 49.91715 13.01258 23945 ft 380 kts 94°
2026-04-14 14:58 49.91579 13.05354 23711 ft 379 kts 94°
2026-04-14 14:58 49.91444 13.09421 23437 ft 377 kts 94°
2026-04-14 14:58 49.91308 13.13478 23165 ft 375 kts 94°
2026-04-14 14:58 49.91170 13.17515 22890 ft 374 kts 94°
2026-04-14 14:59 49.91030 13.21539 22621 ft 372 kts 94°
2026-04-14 14:59 49.90889 13.25529 22352 ft 370 kts 94°
2026-04-14 14:59 49.90746 13.29508 22086 ft 368 kts 94°
2026-04-14 14:59 49.90600 13.33466 21822 ft 367 kts 94°
2026-04-14 15:00 49.90456 13.37401 21557 ft 365 kts 94°
2026-04-14 15:00 49.90327 13.41337 21297 ft 364 kts 94°
2026-04-14 15:00 49.90203 13.45238 20925 ft 360 kts 94°
2026-04-14 15:00 49.90080 13.49094 20469 ft 357 kts 94°
2026-04-14 15:01 49.89955 13.52930 20031 ft 354 kts 94°
2026-04-14 15:01 49.89828 13.56730 19587 ft 352 kts 94°
2026-04-14 15:01 49.89700 13.60503 19162 ft 349 kts 94°
2026-04-14 15:01 49.89572 13.64259 18732 ft 347 kts 94°
2026-04-14 15:02 49.89444 13.67946 18308 ft 345 kts 94°
2026-04-14 15:02 49.89314 13.71644 17854 ft 342 kts 94°
2026-04-14 15:02 49.89186 13.75316 17393 ft 340 kts 94°
2026-04-14 15:02 49.89062 13.78965 16867 ft 337 kts 94°
2026-04-14 15:03 49.88934 13.82589 16367 ft 334 kts 94°
2026-04-14 15:03 49.88807 13.86176 15850 ft 332 kts 94°
2026-04-14 15:03 49.88683 13.89737 15348 ft 330 kts 94°
2026-04-14 15:03 49.88553 13.93274 14887 ft 326 kts 94°
2026-04-14 15:04 49.88425 13.96762 14387 ft 324 kts 94°
2026-04-14 15:04 49.88301 14.00239 13896 ft 322 kts 94°
2026-04-14 15:04 49.88173 14.03679 13394 ft 318 kts 94°
2026-04-14 15:04 49.88050 14.07090 12875 ft 315 kts 94°
2026-04-14 15:05 49.87921 14.10476 12338 ft 314 kts 94°
2026-04-14 15:05 49.87791 14.13837 11862 ft 311 kts 94°
2026-04-14 15:05 49.87655 14.17169 11392 ft 307 kts 94°
2026-04-14 15:05 49.87521 14.20467 10882 ft 306 kts 94°
2026-04-14 15:06 49.87397 14.23754 10373 ft 304 kts 94°
2026-04-14 15:06 49.87271 14.26982 10040 ft 296 kts 94°
2026-04-14 15:06 49.87143 14.30137 9568 ft 293 kts 94°
2026-04-14 15:06 49.87019 14.33276 9074 ft 291 kts 94°
2026-04-14 15:07 49.86899 14.36349 8595 ft 288 kts 94°
2026-04-14 15:07 49.86777 14.39423 8056 ft 284 kts 94°
2026-04-14 15:07 49.86657 14.42473 7482 ft 282 kts 94°
2026-04-14 15:07 49.86543 14.45493 6914 ft 280 kts 94°
2026-04-14 15:08 49.86428 14.48489 6366 ft 276 kts 94°
2026-04-14 15:08 49.86334 14.51457 5881 ft 276 kts 89°
2026-04-14 15:08 49.86812 14.54286 5533 ft 272 kts 59°
2026-04-14 15:08 49.88078 14.56343 5379 ft 260 kts 30°
2026-04-14 15:09 49.89742 14.57122 5278 ft 245 kts 359°
2026-04-14 15:09 49.91352 14.56602 5176 ft 234 kts 338°
2026-04-14 15:09 49.92858 14.55650 5076 ft 232 kts 336°
2026-04-14 15:09 49.94330 14.54655 4967 ft 227 kts 335°
2026-04-14 15:10 49.95735 14.53689 4852 ft 217 kts 335°
2026-04-14 15:10 49.97055 14.52606 4719 ft 212 kts 320°
2026-04-14 15:10 49.98015 14.50888 4569 ft 211 kts 307°
2026-04-14 15:10 49.98889 14.49078 4462 ft 209 kts 307°
2026-04-14 15:11 49.99766 14.47273 4261 ft 208 kts 308°
2026-04-14 15:11 50.00638 14.45482 4000 ft 207 kts 308°
2026-04-14 15:11 50.01499 14.43712 3732 ft 204 kts 309°
2026-04-14 15:11 50.02346 14.41972 3487 ft 201 kts 309°
2026-04-14 15:12 50.03185 14.40247 3223 ft 197 kts 309°
2026-04-14 15:12 50.03976 14.38619 2977 ft 180 kts 309°
2026-04-14 15:12 50.04689 14.37149 2726 ft 160 kts 308°
2026-04-14 15:12 50.05326 14.35836 2523 ft 145 kts 310°
2026-04-14 15:13 50.05913 14.34626 2342 ft 139 kts 311°
2026-04-14 15:13 50.06495 14.33431 2148 ft 136 kts 310°
2026-04-14 15:13 50.07061 14.32265 1954 ft 135 kts 310°
2026-04-14 15:13 50.07617 14.31119 1767 ft 134 kts 309°
2026-04-14 15:14 50.08178 14.29960 1579 ft 134 kts 308°
2026-04-14 15:14 50.08740 14.28801 1400 ft 133 kts 308°
2026-04-14 15:14 50.09297 14.27651 1224 ft 133 kts 308°
2026-04-14 15:14 50.09785 14.26637 1205 ft 96 kts 307°
2026-04-14 15:15 50.10093 14.26000 1190 ft 61 kts 307°
2026-04-14 15:15 50.10268 14.25706 1185 ft 30 kts 333°
2026-04-14 15:15 50.10449 14.25665 1182 ft 18 kts 10°
2026-04-14 15:15 50.10467 14.25672 1182 ft 0 kts 14°
2026-04-14 15:16 50.10476 14.25681 1177 ft 6 kts 36°
2026-04-14 15:16 50.10494 14.25802 1177 ft 16 kts 81°
2026-04-14 15:16 50.10515 14.25974 1175 ft 15 kts 79°
2026-04-14 15:16 50.10537 14.26150 1172 ft 18 kts 83°
2026-04-14 15:17 50.10522 14.26291 1171 ft 6 kts 75°
2026-04-14 15:17 50.10556 14.26343 1170 ft 8 kts 38°
2026-04-14 15:17 50.10562 14.26349 1173 ft 0 kts 35°